This demonstration page uses our WeatherBlox Daily Observations layout. Learn more.

Left ArrowRight Arrow

Hourly Observations for April 5, 2019

Temp ( °F °C ) Dew Point ( °F °C ) Humidity (%) Winds ( mph kmh ) Pressure ( in mb ) Visibility ( mi km ) Precip ( " mm )
12:07 am 00:07 Cloudy with Light Rain 56 13.3 56 13.3 100 100 E 7 11 30.16 1021 5 8 0.01 0.25
12:21 am 00:21 Cloudy with Light Rain 56 13.3 55 12.8 97 97 E 5 7 30.15 1021 6 10 0.01 0.25
12:41 am 00:41 Cloudy with Light Rain 56 13.3 55 12.8 97 97 ESE 6 9 30.14 1021 5 8 0.03 0.76
12:48 am 00:48 Cloudy with Light Rain 55 13 55 13 100 100 E 5 7 30.14 1021 5 8 0.03 0.76
12:53 am 00:53 Cloudy with Light Rain 56 13.3 55 12.8 97 97 E 5 7 30.12 1020 6 10 0.03 0.76
1:04 am 01:04 Cloudy with Rain 56 13.3 55 12.8 97 97 ESE 7 11 30.14 1021 6 10 0.01 0.25
1:19 am 01:19 Cloudy with Light Rain 55 12.8 55 12.8 100 100 VRB 5 7 30.13 1020 6 10 0.03 0.76
1:53 am 01:53 Cloudy with Light Rain 56 13.3 55 12.8 97 97 SE 10 17 30.06 1018 9 14 0.05 1.27
2:00 am 02:00 Cloudy with Light Rain 56 13.3 56 13.3 100 100 SE 8 13 30.08 1019 10 16 0.00 0.03
2:07 am 02:07 Cloudy 56 13.3 56 13.3 100 100 SSE 8 13 30.09 1019 10 16 0.00 0.03
2:53 am 02:53 Cloudy 57 13.9 56 13.3 96 96 SE 5 7 30.06 1018 10 16 0.00 0.03
3:53 am 03:53 Cloudy with Light Rain 58 14.4 58 14.4 100 100 Calm 30.05 1018 10 16 0.02 0.51
5:23 am 05:23 Cloudy with Light Rain 58 14.4 58 14.4 100 100 S 3 6 30.06 1018 10 16 0.05 1.27
5:32 am 05:32 Cloudy with Light Rain 59 15 59 15 100 100 VRB 5 7 30.05 1018 9 14 0.05 1.27
5:53 am 05:53 Cloudy with Light Rain 59 15 59 15 100 100 Calm 30.04 1017 10 16 0.05 1.27
6:53 am 06:53 Cloudy with Light Rain 59 15 59 15 100 100 Calm 30.04 1017 9 14 0.03 0.76
7:53 am 07:53 Cloudy 59 15 59 15 100 100 SSW 5 7 30.05 1018 10 16 0.00 0.03
8:53 am 08:53 Cloudy 60 15.6 59 15 96 96 SSW 5 7 30.06 1018 10 16 0.00 0.00
9:53 am 09:53 Cloudy 61 16.1 60 15.6 97 97 SW 5 7 30.06 1018 10 16 0.00 0.00
10:02 am 10:02 Cloudy 61 16.1 60 15.6 97 97 WSW 6 9 30.06 1018 10 16 0.00 0.00
10:53 am 10:53 Cloudy 62 16.7 61 16.1 96 96 SW 6 9 30.06 1018 10 16 0.00 0.00
11:42 am 11:42 Cloudy 63 17.2 60 15.6 90 90 WSW 6 9 30.08 1019 10 16 0.00 0.00
11:53 am 11:53 Cloudy 64 17.8 61 16.1 90 90 WSW 5 7 30.08 1019 10 16 0.00 0.00
12:08 pm 12:08 Cloudy 65 18.3 61 16.1 87 87 WSW 9 15 30.07 1018 10 16 0.00 0.00
12:20 pm 12:20 Cloudy 66 18.9 61 16.1 84 84 SW 7 11 30.07 1018 10 16 0.00 0.00
12:53 pm 12:53 Cloudy 67 19.4 61 16.1 81 81 SW 3 6 30.07 1018 10 16 0.00 0.00
1:23 pm 13:23 Cloudy 68 20 61 16.1 78 78 SSW 6 9 30.05 1018 10 16 0.00 0.00
1:53 pm 13:53 Mostly Cloudy 68 20 61 16.1 78 78 WSW 3 6 30.05 1018 10 16 0.00 0.00
2:53 pm 14:53 Cloudy 72 22.2 60 15.6 66 66 W 6 9 30.04 1017 10 16 0.00 0.00
3:53 pm 15:53 Cloudy 73 22.8 59 15 62 62 NW 12 19 30.02 1017 10 16 0.00 0.00
4:53 pm 16:53 Mostly Cloudy 76 24.4 59 15 56 56 VRB 7 11 30.01 1016 10 16 0.00 0.00
5:53 pm 17:53 Mostly Sunny 73 22.8 57 13.9 57 57 W 5 7 30.02 1017 10 16 0.00 0.00
6:53 pm 18:53 Mostly Sunny 74 23.3 57 13.9 56 56 WNW 6 9 30.03 1017 10 16 0.00 0.00
7:53 pm 19:53 Sunny 70 21.1 57 13.9 64 64 Calm 30.04 1017 10 16 0.00 0.00
8:53 pm 20:53 Clear 64 17.8 58 14.4 81 81 Calm 30.05 1018 10 16 0.00 0.00
9:53 pm 21:53 Clear 60 15.6 58 14.4 93 93 Calm 30.06 1018 10 16 0.00 0.00
10:53 pm 22:53 Clear 59 15 58 14.4 96 96 Calm 30.08 1019 10 16 0.00 0.00
11:53 pm 23:53 Clear 57 13.9 57 13.9 100 100 Calm 30.09 1019 10 16 0.00 0.00

Powered by AerisWeather